Location: Bambrugge
(50.9212°N, 3.9299°E)
Time: 01:55:40
(UTC+00:00)

CZ-2C R/B - Pass Details

Date: 23 May 2024
Orbit: 784 x 868 km, 98.3° (Epoch: 21 June)

Event Time Altitude Azimuth Distance (km) Brightness Sun altitude
Exits shadow 00:47:47 - 135° (SE) 2,858 5.2 -16.9°
Reaches altitude 10° 00:49:10 10° 130° (SE) 2,341 4.8 -16.9°
Maximum altitude 00:53:53 38° 64° (ENE) 1,199 3.9 -16.7°
Drops below altitude 10° 00:58:38 10° 358° (N) 2,366 6.1 -16.4°
Sets 01:01:07 0° 351° (N) 3,307 6.9 -16.3°
